Regional Weather Roundup
Issued by NWS

Home | Current Version | Previous Version | Graphics & Text | Print | Product List | Glossary On
Versions: 1 2 3 4 5 6 7 8 9 10 11 12 13 14 15 16 17 18 19 20 21 22 23 24 25 26 27 28 29 30 31 32 33 34 35 36 37 38 39 40 41 42 43 44 45 46 47 48 49 50
000
ASUS45 KSLC 301610
RWRUT

UTAH REGIONAL WEATHER ROUNDUP
NATIONAL WEATHER SERVICE SALT LAKE CITY UT
1000 AM MDT TUE JUN 30 2015

UTZ001>011-023>025-301700-

NORTHERN UTAH

CITY           SKY/WX    TMP DP  RH WIND       PRES   REMARKS
BRIGHAM CITY   SUNNY     85  50  30 CALM      30.09S
HILL AFB       NOT AVBL
LOGAN          SUNNY     79  57  46 NW9       30.11S
OGDEN          MOSUNNY   85  53  33 S6        30.09S
PROVO AIRPORT  PTSUNNY   82  52  34 CALM      30.12S
SALT LAKE CITY MOSUNNY   88  55  32 SE6       30.07S
VERNAL         MOSUNNY   79  45  29 VRB3      30.17S
WENDOVER       SUNNY     91  46  21 CALM      30.08F
HEBER CITY     SUNNY     75  48  38 CALM      30.22F
WEST JORDAN    SUNNY     86  54  32 SE7       30.11F

$$

UTZ012>022-026-027-301700-

SOUTHERN/CENTRAL UTAH

CITY           SKY/WX    TMP DP  RH WIND       PRES   REMARKS
BLANDING       SUNNY     80  46  30 CALM      30.31S
BRYCE CANYON   MOSUNNY   79  46  31 NE7       30.38S
CEDAR CITY     SUNNY     86  45  23 NE5       30.20F
DELTA          MOSUNNY   85  44  24 SW7       30.14R
HANKSVILLE     SUNNY     88  41  19 CALM      30.10S
MILFORD        SUNNY     86  47  25 S12       30.15F
MOAB/CYNLANDS  SUNNY     89  45  21 E8        30.07F
PRICE          MOSUNNY   89  44  20 VRB5      30.19F
ST GEORGE      SUNNY     90  48  24 CALM      30.01S
KANAB          SUNNY     82  52  34 SE3       30.20F

$$

REGIONAL REPORTS     COLORADO/ARIZONA

CITY           SKY/WX    TMP DP  RH WIND       PRES   REMARKS
CRAIG, CO      MOSUNNY   77  51  40 N5        30.25F
GRAND JUNCTION MOSUNNY   81  47  30 S8        30.13F
RIFLE          SUNNY     79  49  34 CALM      30.20F
MONTROSE       MOSUNNY   80  49  33 SW3       30.23S
CORTEZ         SUNNY     81  48  31 CALM      30.24F
PAGE, AZ       SUNNY     89  48  24 NE5       30.08S
GRAND CANYON   SUNNY     82  46  28 VRB7      30.30S
KINGMAN        MOSUNNY   90  51  26 SW8       30.05S
FLAGSTAFF      PTSUNNY   74  50  42 S5        30.34R

$$

REGIONAL REPORTS    NEVADA/IDAHO/WYOMING

CITY           SKY/WX    TMP DP  RH WIND       PRES   REMARKS
LAS VEGAS, NV  PTSUNNY   99  51  19 S13       29.89R HX  96
ELY            MOSUNNY   80  47  31 S7        30.27F
ELKO           SUNNY     81  48  31 W5        30.18S
POCATELLO, ID  SUNNY     74  58  57 SW3       30.14S
BURLEY         MOSUNNY   79  58  48 E5        30.10S
EVANSTON, WY   MOSUNNY   75  48  38 CALM      30.32F
ROCK SPRINGS   MOSUNNY   76  45  33 SW9       30.27F
KEMMERER       SUNNY     73  45  35 CALM      30.34S

$$


USA.gov is the U.S. government's official web portal to all federal, state and local government web resources and services.